Simultaneous Nadir Overpasses (SNOs) Predictions

Prediction of SNOs between GOES-15 and NPP Satellite Orbit:

Table of predicted SNOs for the next 14.0 days since TLE Epoch: 7/31/2012
Index Date Time (GOES-15) GOES-15 Lat,Lon NPP Lat,Lon Distance(km) Time Diff (sec)
1 07/31/2012 22:16:05 0.36,-135.21 0.86,-133.01 251.70 80
2 08/02/2012 10:35:13 -0.37,-135.19 0.29,-138.29 352.43 80
3 08/03/2012 10:19:08 -0.37,-135.17 -0.68,-133.75 161.64 80
4 08/04/2012 22:38:24 0.38,-135.13 -0.48,-139.06 447.53 80
5 08/05/2012 22:22:18 0.37,-135.10 0.49,-134.52 66.51 80
6 08/08/2012 10:22:41 -0.38,-135.05 -0.33,-135.26 24.20 80
7 08/09/2012 10:06:36 -0.38,-135.02 -1.32,-130.72 489.12 80
8 08/10/2012 22:25:52 0.39,-134.96 0.17,-136.03 121.38 80
9 08/11/2012 22:09:47 0.39,-134.93 1.16,-131.50 391.70 80
10 08/13/2012 10:28:54 -0.40,-134.89 0.02,-136.77 213.73 80




NCC Satellite Simultaneous Nadir Overpasses (SNOs) Prediction Service
